Regional Weather Roundup
Issued by NWS

Home | Current Version | Previous Version | Text Only | Print | Product List | Glossary On
Versions: 1 2 3 4 5 6 7 8 9 10 11 12 13 14 15 16 17 18 19 20 21 22 23 24 25 26 27 28 29 30 31 32 33 34 35 36 37 38 39 40 41 42 43 44 45 46 47 48 49 50
000
ASUS43 KLSX 300210
RWRMO

WEATHER SUMMARY FOR MISSOURI
NATIONAL WEATHER SERVICE SPRINGFIELD MO
900 PM CDT MON AUG 29 2016

NOTE: "FAIR" INDICATES FEW OR NO CLOUDS BELOW 12,000 FEET WITH NO
       SIGNIFICANT WEATHER AND/OR OBSTRUCTIONS TO VISIBILITY.
       CURRENT SKY AND/OR WEATHER CONDITIONS ARE NOT AVAILABLE FOR
       CHILLICOTHE AND FARMINGTON.

MOZ001>031-035>038-043-044-053-054-300300-
...NORTHERN AND WESTERN MISSOURI...

CITY           SKY/WX    TMP DP  RH WIND       PRES   REMARKS
KANSAS CTY INT PTCLDY    81  70  69 NE6       30.14R
KANSAS C DTWN  CLEAR     81  73  76 N3        30.12R
LEE`S SUMMIT   CLEAR     81  73  76 E5        30.14R
ST JOSEPH      MOCLDY    77  73  87 CALM      30.13R
CHILLICOTHE      N/A     76  67  73 CALM      30.14S
KIRKSVILLE     CLEAR     75  71  87 NE3       30.16S

$$
MOZ066>068-077>081-088>096-101>105-300300-
...SOUTHWEST MISSOURI...

CITY           SKY/WX    TMP DP  RH WIND       PRES   REMARKS
SPRINGFIELD    PTCLDY    75  68  78 SW3       30.14R
JOPLIN         CLEAR     78  68  71 SE5       30.13R
BRANSON        MOCLDY    73  72  94 CALM      30.14R

$$
MOZ032>034-039>042-045>050-055>058-069>072-300300-
...CENTRAL MISSOURI...

CITY           SKY/WX    TMP DP  RH WIND       PRES   REMARKS
COLUMBIA       CLEAR     78  73  84 E3        30.14R
JEFFERSON CITY CLEAR     81  73  76 SE5       30.12R
ROLLA          CLEAR     77  70  79 SE5       30.14R
SEDALIA        CLOUDY    81  73  76 CALM      30.14R
WHITEMAN AFB   PTCLDY    78  76  94 E3        30.12R
OSAGE BEACH    CLEAR     77  73  87 NE5       30.14R

$$
MOZ051-052-059>065-300300-
...EAST CENTRAL MISSOURI...

CITY           SKY/WX    TMP DP  RH WIND       PRES   REMARKS
ST LOUIS INTL  MOCLDY    85  74  69 E8        30.13R HX  92
SPIRIT OF STL  PTCLDY    81  77  88 CALM      30.11R
ST CHARLES     PTCLDY    81  77  88 E5        30.12R

$$
MOZ072>076-082>087-097>100-106>115-300300-
...SOUTH CENTRAL AND SOUTHEAST MISSOURI...

CITY           SKY/WX    TMP DP  RH WIND       PRES   REMARKS
CAPE GIRARDEAU CLEAR     79  73  82 CALM      30.10R
FARMINGTON     CLEAR     79  74  84 NE3       30.15R
POPLAR BLUFF   CLEAR     79  74  84 NE5       30.08R
WEST PLAINS    CLEAR     77  72  84 N5        30.15R

$$




USA.gov is the U.S. government's official web portal to all federal, state and local government web resources and services.